| time (UTC) | temp F | wind direction | speed knots | gust knots | rain 1hr in | rain 24hr in | rain mn in | humidity % | barometer mb |
| 20260507083246 | 53 | 72 | 5.2 | 7.0 | 0.00 | 0.00 | 0.00 | 69 | 1007.5 |
| 20260507081755 | 51 | 48 | 6.1 | 8.7 | 0.00 | 0.00 | 0.00 | 71 | 1007.6 |
| 20260507080251 | 51 | 75 | 5.2 | 9.6 | 0.00 | 0.00 | 0.00 | 73 | 1007.4 |
| 20260507074741 | 51 | 41 | 8.7 | 10.4 | 0.00 | 0.00 | 0.00 | 73 | 1007.3 |
| 20260507073318 | 50 | 42 | 5.2 | 9.6 | 0.00 | 0.00 | 0.00 | 76 | 1007.3 |
| 20260507071758 | 49 | 44 | 5.2 | 8.7 | 0.00 | 0.00 | 0.00 | 78 | 1007.6 |
| 20260507070236 | 49 | 10 | 4.3 | 7.0 | 0.00 | 0.00 | 0.00 | 78 | 1007.4 |
| 20260507064743 | 49 | 52 | 3.5 | 7.0 | 0.00 | 0.00 | 0.00 | 79 | 1007.5 |
| 20260507063233 | 49 | 75 | 3.5 | 6.1 | 0.00 | 0.00 | 0.00 | 79 | 1007.4 |
| 20260507061742 | 48 | 23 | 3.5 | 6.1 | 0.00 | 0.00 | 0.00 | 80 | 1007.6 |
| 20260507060235 | 48 | 25 | 1.7 | 4.3 | 0.00 | 0.00 | 0.00 | 81 | 1007.6 |
| 20260507054740 | 47 | 25 | 1.7 | 6.1 | 0.00 | 0.00 | 0.00 | 83 | 1007.5 |
| 20260507053246 | 47 | 17 | 2.6 | 6.1 | 0.00 | 0.00 | 0.00 | 84 | 1007.5 |
| 20260507051737 | 46 | 27 | 2.6 | 7.8 | 0.00 | 0.00 | 0.00 | 84 | 1007.4 |
| 20260507050234 | 46 | 56 | 4.3 | 7.0 | 0.00 | 0.00 | 0.00 | 84 | 1007.4 |
| 20260507044745 | 47 | 55 | 5.2 | 9.6 | 0.00 | 0.00 | 0.00 | 83 | 1007.2 |
| 20260507043236 | 47 | 360 | 7.8 | 11.3 | 0.00 | 0.00 | 0.00 | 82 | 1007.1 |
| 20260507041745 | 48 | 51 | 7.0 | 9.6 | 0.00 | 0.00 | 0.00 | 81 | 1007.2 |
| 20260507040256 | 48 | 352 | 4.3 | 8.7 | 0.00 | 0.00 | 0.00 | 81 | 1007.4 |
| 20260507034741 | 48 | 354 | 3.5 | 7.0 | 0.00 | 0.00 | 0.00 | 81 | 1007.6 |
| 20260507033232 | 48 | 52 | 2.6 | 5.2 | 0.00 | 0.00 | 0.00 | 80 | 1007.7 |
| 20260507031737 | 48 | 52 | 0.9 | 3.5 | 0.00 | 0.00 | 0.00 | 80 | 1007.8 |
| 20260507030242 | 48 | 8 | 2.6 | 4.3 | 0.00 | 0.00 | 0.00 | 80 | 1008.0 |
| 20260507024737 | 48 | 41 | 1.7 | 9.6 | 0.00 | 0.00 | 0.00 | 81 | 1007.8 |
| 20260507023304 | 48 | 31 | 2.6 | 9.6 | 0.00 | 0.00 | 0.00 | 83 | 1007.7 |
| 20260507021733 | 48 | 48 | 3.5 | 10.4 | 0.00 | 0.00 | 0.00 | 81 | 1007.9 |
| 20260507020250 | 48 | 78 | 7.0 | 14.8 | 0.00 | 0.00 | 0.00 | 80 | 1007.7 |
| 20260507014741 | 48 | 62 | 7.0 | 13.9 | 0.00 | 0.00 | 0.00 | 80 | 1007.8 |
| 20260507013248 | 48 | 41 | 7.8 | 13.9 | 0.00 | 0.00 | 0.00 | 80 | 1008.0 |
| 20260507011739 | 48 | 49 | 9.6 | 12.2 | 0.00 | 0.00 | 0.00 | 81 | 1008.0 |
| 20260507010242 | 48 | 52 | 6.1 | 10.4 | 0.00 | 0.00 | 0.00 | 81 | 1008.3 |
| 20260507004734 | 48 | 47 | 6.1 | 11.3 | 0.00 | 0.00 | 0.00 | 81 | 1008.4 |
| 20260507003238 | 48 | 18 | 5.2 | 12.2 | 0.00 | 0.00 | 0.00 | 81 | 1008.4 |
| 20260507001741 | 48 | 48 | 7.8 | 14.8 | 0.00 | 0.00 | 0.00 | 80 | 1008.2 |
| 20260507000242 | 49 | 73 | 6.1 | 11.3 | 0.00 | 0.00 | 0.00 | 79 | 1008.3 |
| 20260506234747 | 49 | 55 | 7.0 | 11.3 | 0.00 | 0.00 | 0.00 | 78 | 1008.5 |
| 20260506233236 | 50 | 68 | 9.6 | 11.3 | 0.00 | 0.00 | 0.00 | 77 | 1008.4 |
| 20260506231745 | 50 | 71 | 6.1 | 10.4 | 0.00 | 0.00 | 0.00 | 75 | 1008.4 |
| 20260506230256 | 51 | 54 | 5.2 | 11.3 | 0.00 | 0.00 | 0.00 | 72 | 1008.3 |
| 20260506224740 | 52 | 48 | 7.8 | 12.2 | 0.00 | 0.00 | 0.00 | 65 | 1008.4 |
| 20260506223248 | 54 | 54 | 6.1 | 10.4 | 0.00 | 0.00 | 0.00 | 52 | 1007.9 |
| 20260506221737 | 54 | 73 | 1.7 | 3.5 | 0.00 | 0.00 | 0.00 | 51 | 1007.9 |
| 20260506220244 | 54 | 73 | 1.7 | 4.3 | 0.00 | 0.00 | 0.00 | 52 | 1008.1 |
| 20260506214743 | 54 | 73 | 1.7 | 2.6 | 0.00 | 0.00 | 0.00 | 53 | 1008.1 |
| 20260506213307 | 54 | 73 | 2.6 | 4.3 | 0.00 | 0.00 | 0.00 | 52 | 1008.2 |
| 20260506211756 | 55 | 73 | 1.7 | 2.6 | 0.00 | 0.00 | 0.00 | 48 | 1008.2 |
| 20260506210233 | 55 | 73 | 0.9 | 2.6 | 0.00 | 0.00 | 0.00 | 46 | 1008.3 |
| 20260506204737 | 56 | 73 | 0.0 | 1.7 | 0.00 | 0.00 | 0.00 | 45 | 1008.1 |
| 20260506203232 | 56 | 73 | 1.7 | 2.6 | 0.00 | 0.00 | 0.00 | 43 | 1007.9 |
| 20260506201742 | 57 | 73 | 0.0 | 1.7 | 0.00 | 0.00 | 0.00 | 43 | 1007.8 |
| 20260506200235 | 58 | 73 | 1.7 | 2.6 | 0.00 | 0.00 | 0.00 | 39 | 1007.7 |
| 20260506194805 | 58 | 73 | 0.9 | 1.7 | 0.00 | 0.00 | 0.00 | 35 | 1007.7 |
| 20260506193233 | 58 | 73 | 0.0 | 1.7 | 0.00 | 0.00 | 0.00 | 32 | 1007.7 |
| 20260506191743 | 59 | 73 | 0.9 | 2.6 | 0.00 | 0.00 | 0.00 | 31 | 1007.7 |
| 20260506190234 | 59 | 73 | 1.7 | 2.6 | 0.00 | 0.00 | 0.00 | 31 | 1007.8 |
| 20260506184745 | 59 | 73 | 0.9 | 3.5 | 0.00 | 0.00 | 0.00 | 31 | 1007.7 |
| 20260506183235 | 59 | 73 | 3.5 | 5.2 | 0.00 | 0.00 | 0.00 | 31 | 1007.7 |
| 20260506181739 | 60 | 99 | 1.7 | 5.2 | 0.00 | 0.00 | 0.00 | 30 | 1007.8 |
| 20260506180300 | 60 | 109 | 2.6 | 6.1 | 0.00 | 0.00 | 0.00 | 30 | 1007.2 |
| 20260506174733 | 60 | 75 | 1.7 | 4.3 | 0.00 | 0.07 | 0.00 | 32 | 1008.1 |
| 20260506173257 | 60 | 83 | 2.6 | 6.1 | 0.00 | 0.07 | 0.00 | 31 | 1008.2 |
| 20260506171747 | 60 | 75 | 2.6 | 7.0 | 0.00 | 0.07 | 0.00 | 31 | 1007.4 |
| 20260506170310 | 61 | 128 | 1.7 | 6.1 | 0.00 | 0.07 | 0.00 | 32 | 1008.2 |
| 20260506164757 | 61 | 106 | 1.7 | 4.3 | 0.00 | 0.07 | 0.00 | 31 | 1008.3 |
| 20260506163259 | 61 | 152 | 1.7 | 6.1 | 0.00 | 0.07 | 0.00 | 31 | 1008.3 |
| 20260506161744 | 59 | 61 | 1.7 | 7.0 | 0.00 | 0.07 | 0.00 | 32 | 1008.3 |
| 20260506160239 | 61 | 167 | 1.7 | 7.0 | 0.00 | 0.07 | 0.00 | 31 | 1008.4 |
| 20260506154746 | 60 | 138 | 2.6 | 8.7 | 0.00 | 0.07 | 0.00 | 34 | 1007.8 |
| 20260506153236 | 59 | 62 | 0.9 | 5.2 | 0.00 | 0.07 | 0.00 | 33 | 1008.8 |
| 20260506151805 | 60 | 155 | 0.0 | 6.1 | 0.00 | 0.07 | 0.00 | 33 | 1008.9 |
| 20260506150304 | 59 | 117 | 3.5 | 8.7 | 0.00 | 0.07 | 0.00 | 35 | 1009.1 |
| 20260506144800 | 60 | 104 | 0.9 | 5.2 | 0.00 | 0.07 | 0.00 | 35 | 1009.3 |
| 20260506143246 | 59 | 82 | 3.5 | 9.6 | 0.00 | 0.07 | 0.00 | 36 | 1009.5 |
| 20260506141817 | 58 | 47 | 3.5 | 6.1 | 0.00 | 0.07 | 0.00 | 39 | 1009.7 |
| 20260506140242 | 57 | 49 | 6.1 | 7.0 | 0.00 | 0.07 | 0.00 | 39 | 1009.7 |
| 20260506134749 | 58 | 75 | 0.0 | 6.1 | 0.00 | 0.07 | 0.00 | 38 | 1009.9 |
| 20260506133235 | 60 | 157 | 0.9 | 4.3 | 0.00 | 0.07 | 0.00 | 35 | 1009.9 |
| 20260506131742 | 59 | 133 | 3.5 | 6.1 | 0.00 | 0.07 | 0.00 | 36 | 1010.0 |
| 20260506130242 | 57 | 48 | 3.5 | 9.6 | 0.00 | 0.07 | 0.00 | 41 | 1010.3 |
| 20260506124749 | 57 | 40 | 0.9 | 4.3 | 0.00 | 0.07 | 0.00 | 39 | 1010.2 |
| 20260506123236 | 57 | 178 | 0.0 | 5.2 | 0.00 | 0.07 | 0.00 | 41 | 1010.6 |
| 20260506121742 | 56 | 234 | 0.0 | 4.3 | 0.00 | 0.07 | 0.00 | 44 | 1010.8 |
| 20260506120257 | 55 | 291 | 2.6 | 6.1 | 0.00 | 0.07 | 0.00 | 44 | 1010.9 |
| 20260506114747 | 55 | 73 | 0.9 | 5.2 | 0.00 | 0.07 | 0.00 | 46 | 1011.1 |
| 20260506113235 | 54 | 14 | 2.6 | 6.1 | 0.00 | 0.07 | 0.00 | 47 | 1010.5 |
| 20260506111743 | 55 | 329 | 4.3 | 6.1 | 0.00 | 0.07 | 0.00 | 47 | 1011.2 |
| 20260506110258 | 55 | 27 | 0.9 | 7.0 | 0.00 | 0.07 | 0.00 | 47 | 1011.2 |
| 20260506104739 | 54 | 25 | 1.7 | 7.0 | 0.00 | 0.07 | 0.00 | 47 | 1010.5 |
| 20260506103252 | 54 | 58 | 4.3 | 6.1 | 0.00 | 0.07 | 0.00 | 47 | 1010.6 |
| 20260506101756 | 53 | 38 | 2.6 | 6.1 | 0.00 | 0.07 | 0.00 | 49 | 1010.8 |
| 20260506100250 | 52 | 320 | 5.2 | 7.0 | 0.00 | 0.07 | 0.00 | 50 | 1010.6 |
| 20260506094758 | 51 | 54 | 4.3 | 10.4 | 0.00 | 0.07 | 0.00 | 51 | 1010.6 |
| 20260506093241 | 51 | 76 | 0.9 | 7.0 | 0.00 | 0.07 | 0.00 | 55 | 1010.7 |
| 20260506091746 | 51 | 47 | 4.3 | 8.7 | 0.00 | 0.07 | 0.00 | 54 | 1010.7 |
| 20260506090243 | 51 | 34 | 4.3 | 7.8 | 0.00 | 0.07 | 0.00 | 57 | 1010.7 |
| 20260506084810 | 51 | 52 | 2.6 | 7.8 | 0.00 | 0.07 | 0.00 | 63 | 1010.6 |